EN

Hourly Weather Poludetki

Today, 28 November, Saturday

Time Temperature Precipitation Wind Pressure Humidity
00:00 -2°C° 0.1 mm 2 mps 743 mmHg 93%
01:00 -2°C° 0.1 mm 2 mps 743 mmHg 94%
02:00 -3°C° 0 mm 2 mps 743 mmHg 97%
03:00 -3°C° 0.1 mm 2 mps 743 mmHg 97%
04:00 -3°C° 0.1 mm 2 mps 744 mmHg 97%
05:00 -3°C° 0.1 mm 2 mps 744 mmHg 97%
06:00 -3°C° 0.1 mm 2 mps 744 mmHg 97%
07:00 -3°C° 0.1 mm 2 mps 745 mmHg 97%
08:00 -3°C° 0 mm 2 mps 745 mmHg 96%
09:00 -3°C° 0 mm 2 mps 746 mmHg 94%
10:00 -2°C° 0 mm 2 mps 747 mmHg 91%
11:00 -2°C° 0 mm 2 mps 747 mmHg 89%
12:00 -1°C° 0 mm 2 mps 748 mmHg 90%
13:00 -1°C° 0 mm 2 mps 748 mmHg 91%
14:00 -1°C° 0 mm 2 mps 748 mmHg 92%
15:00 -1°C° 0 mm 2 mps 749 mmHg 93%
16:00 -1°C° 0 mm 2 mps 749 mmHg 93%
17:00 -1°C° 0 mm 3 mps 749 mmHg 94%
18:00 -1°C° 0 mm 3 mps 750 mmHg 93%
19:00 -1°C° 0 mm 3 mps 750 mmHg 93%
20:00 0°C° 0 mm 3 mps 751 mmHg 92%
21:00 -1°C° 0 mm 3 mps 751 mmHg 92%
22:00 -1°C° 0 mm 3 mps 751 mmHg 91%
23:00 -1°C° 0 mm 3 mps 751 mmHg 91%

Tomorrow, 29 November, Sunday

Time Temperature Precipitation Wind Pressure Humidity
00:00 -2°C° 0 mm 4 mps 751 mmHg 91%
01:00 -2°C° 0 mm 4 mps 751 mmHg 91%
02:00 -2°C° 0 mm 4 mps 751 mmHg 91%
03:00 -2°C° 0 mm 4 mps 750 mmHg 92%
04:00 -2°C° 0 mm 4 mps 750 mmHg 92%
05:00 -2°C° 0 mm 4 mps 749 mmHg 93%
06:00 -2°C° 0.3 mm 4 mps 749 mmHg 94%
07:00 -2°C° 0.3 mm 4 mps 749 mmHg 95%
08:00 -2°C° 0.3 mm 4 mps 749 mmHg 96%
09:00 -2°C° 0.3 mm 4 mps 749 mmHg 96%
10:00 -1°C° 0.3 mm 3 mps 749 mmHg 96%
11:00 0°C° 0.3 mm 3 mps 749 mmHg 97%
12:00 +1°C° 0.1 mm 2 mps 749 mmHg 97%
13:00 +1°C° 0.1 mm 2 mps 749 mmHg 97%
14:00 +2°C° 0.1 mm 1 mps 749 mmHg 98%
15:00 +2°C° 0 mm 1 mps 749 mmHg 98%
16:00 +2°C° 0 mm 1 mps 749 mmHg 98%
17:00 +2°C° 0 mm 1 mps 749 mmHg 98%
18:00 +1°C° 0 mm 1 mps 749 mmHg 97%
19:00 -1°C° 0 mm 2 mps 749 mmHg 95%
20:00 -1°C° 0 mm 2 mps 750 mmHg 94%
21:00 -2°C° 0 mm 2 mps 750 mmHg 93%
22:00 -2°C° 0 mm 2 mps 750 mmHg 92%
23:00 0°C° 0 mm 1 mps 750 mmHg 92%

Day after tomorrow, 30 November, Monday

Time Temperature Precipitation Wind Pressure Humidity
00:00 -2°C° 0 mm 2 mps 750 mmHg 91%
01:00 -2°C° 0 mm 2 mps 751 mmHg 91%
02:00 -2°C° 0 mm 2 mps 751 mmHg 90%
03:00 -2°C° 0 mm 2 mps 751 mmHg 91%
04:00 -2°C° 0 mm 2 mps 751 mmHg 91%
05:00 -3°C° 0 mm 2 mps 751 mmHg 91%
06:00 -3°C° 0 mm 2 mps 751 mmHg 92%
07:00 -3°C° 0 mm 2 mps 751 mmHg 93%
08:00 -4°C° 0 mm 2 mps 752 mmHg 94%
09:00 -3°C° 0 mm 2 mps 751 mmHg 93%
10:00 -2°C° 0 mm 2 mps 751 mmHg 91%
11:00 -2°C° 0 mm 2 mps 751 mmHg 89%
12:00 +1°C° 0 mm 1 mps 751 mmHg 89%
13:00 +1°C° 0 mm 1 mps 751 mmHg 89%
14:00 +1°C° 0 mm 1 mps 751 mmHg 88%
15:00 +1°C° 0 mm 1 mps 751 mmHg 88%
16:00 0°C° 0 mm 1 mps 751 mmHg 88%
17:00 -2°C° 0 mm 2 mps 751 mmHg 88%
18:00 -3°C° 0 mm 2 mps 751 mmHg 90%
19:00 -3°C° 0 mm 2 mps 751 mmHg 91%
20:00 -4°C° 0 mm 2 mps 752 mmHg 93%
21:00 -4°C° 0 mm 2 mps 752 mmHg 92%
22:00 -4°C° 0 mm 2 mps 752 mmHg 92%
23:00 -4°C° 0 mm 2 mps 752 mmHg 91%

1 December, Tuesday

Time Temperature Precipitation Wind Pressure Humidity
00:00 -4°C° 0 mm 2 mps 752 mmHg 88%
01:00 -3°C° 0 mm 2 mps 753 mmHg 86%
02:00 -3°C° 0 mm 2 mps 753 mmHg 83%
03:00 -3°C° 0 mm 2 mps 753 mmHg 83%
04:00 -3°C° 0 mm 2 mps 753 mmHg 83%
05:00 -3°C° 0 mm 2 mps 753 mmHg 82%
06:00 -3°C° 0 mm 2 mps 753 mmHg 84%
07:00 -3°C° 0 mm 2 mps 754 mmHg 85%
08:00 -4°C° 0 mm 2 mps 754 mmHg 86%
09:00 -3°C° 0 mm 2 mps 754 mmHg 84%
10:00 -3°C° 0 mm 2 mps 754 mmHg 83%
11:00 -2°C° 0 mm 3 mps 754 mmHg 81%
12:00 -2°C° 0 mm 2 mps 755 mmHg 82%
13:00 -2°C° 0 mm 2 mps 755 mmHg 83%
14:00 -2°C° 0 mm 2 mps 755 mmHg 84%
15:00 -3°C° 0 mm 2 mps 755 mmHg 87%
16:00 -3°C° 0 mm 2 mps 755 mmHg 90%
17:00 -4°C° 0 mm 2 mps 755 mmHg 93%
18:00 -4°C° 0 mm 2 mps 756 mmHg 93%
19:00 -2°C° 0 mm 1 mps 756 mmHg 94%
20:00 -2°C° 0 mm 1 mps 756 mmHg 94%
21:00 -3°C° 0 mm 1 mps 756 mmHg 94%
22:00 -3°C° 0 mm 1 mps 756 mmHg 94%
23:00 -3°C° 0 mm 1 mps 756 mmHg 94%

2 December, Wednesday

Time Temperature Precipitation Wind Pressure Humidity
00:00 -3°C° 0 mm 1 mps 756 mmHg 94%
01:00 -3°C° 0 mm 1 mps 756 mmHg 94%
02:00 -3°C° 0 mm 1 mps 756 mmHg 93%
03:00 -3°C° 0 mm 1 mps 756 mmHg 93%
04:00 -3°C° 0 mm 1 mps 756 mmHg 92%
05:00 -3°C° 0 mm 1 mps 756 mmHg 92%
06:00 -3°C° 0 mm 1 mps 756 mmHg 91%
07:00 -4°C° 0 mm 1 mps 756 mmHg 91%
08:00 -4°C° 0 mm 1 mps 756 mmHg 90%
09:00 -3°C° 0 mm 1 mps 756 mmHg 87%
10:00 -3°C° 0 mm 1 mps 756 mmHg 85%
11:00 -2°C° 0 mm 1 mps 756 mmHg 82%
12:00 -2°C° 0 mm 1 mps 756 mmHg 83%
13:00 -2°C° 0 mm 1 mps 755 mmHg 84%
14:00 -2°C° 0 mm 1 mps 755 mmHg 86%
15:00 -2°C° 0 mm 1 mps 755 mmHg 89%
16:00 -3°C° 0 mm 1 mps 755 mmHg 92%
17:00 -3°C° 0 mm 1 mps 755 mmHg 95%
18:00 -3°C° 0 mm 1 mps 755 mmHg 95%
19:00 -3°C° 0 mm 1 mps 755 mmHg 96%
20:00 -3°C° 0 mm 1 mps 755 mmHg 97%
21:00 -3°C° 0 mm 1 mps 755 mmHg 97%
22:00 -3°C° 0 mm 1 mps 755 mmHg 97%
23:00 -3°C° 0 mm 1 mps 755 mmHg 97%

3 December, Thursday

Time Temperature Precipitation Wind Pressure Humidity
00:00 -3°C° 0 mm 1 mps 755 mmHg 96%
01:00 -3°C° 0 mm 1 mps 754 mmHg 96%
02:00 -3°C° 0 mm 1 mps 754 mmHg 96%
03:00 -2°C° 0 mm 1 mps 754 mmHg 95%
04:00 -2°C° 0 mm 1 mps 754 mmHg 93%
05:00 -2°C° 0 mm 1 mps 754 mmHg 92%
06:00 -2°C° 0 mm 1 mps 754 mmHg 93%
07:00 -2°C° 0 mm 1 mps 754 mmHg 93%
08:00 -2°C° 0 mm 1 mps 754 mmHg 93%
09:00 -1°C° 0 mm 1 mps 754 mmHg 92%
10:00 -3°C° 0 mm 2 mps 754 mmHg 92%
11:00 -3°C° 0 mm 2 mps 754 mmHg 91%
12:00 -3°C° 0 mm 2 mps 754 mmHg 90%
13:00 -3°C° 0 mm 2 mps 754 mmHg 90%
14:00 -2°C° 0 mm 2 mps 754 mmHg 89%
15:00 -3°C° 0 mm 2 mps 754 mmHg 91%
16:00 -3°C° 0 mm 2 mps 753 mmHg 93%
17:00 -4°C° 0 mm 2 mps 753 mmHg 95%
18:00 -4°C° 0 mm 2 mps 753 mmHg 95%
19:00 -4°C° 0 mm 2 mps 753 mmHg 95%
20:00 -4°C° 0 mm 2 mps 753 mmHg 95%
21:00 -4°C° 0 mm 2 mps 753 mmHg 95%
22:00 -4°C° 0 mm 2 mps 753 mmHg 96%
23:00 -2°C° 0 mm 1 mps 753 mmHg 96%
Show more

We Need Your Consent

Meteoprog and our Service Providers may store and access personal data such as cookies, device identifiers or other similar technologies on your device and process such data to personalise content and ads, as well as provide social media features and to analyse the traffic.

  • Store and/or access information on your device

    Cookies, device identifiers or other information can be stored or accessed on your device for the purposes indicated above.

  • Personalised ads and content, ad and content measurement, audience insights, and products development

    Ads and content can be personalised based on a profile. More data can be added to better personalise ads and content. Ad and content performance can be measured. Insights about the audience who saw the ads and content can be derived. Such data can be used to develop or improve user’s experience, systems and software.

By clicking ‘I Agree’ you will allow the use of indicated cookies, device identifiers, web beacons or other similar technologies. Your settings can be changed in the browser on your device.

For certain purposes, legitimate interests may be relied on, rather than consent. You can read more about this in our Privacy and Cookie Policy.